sat.trackr.live / text

‹ back to catalog

EUTELSAT 7B

NORAD 39163 · 2013-022A

PAYLOAD ACTIVE UNKNOWN

§ Identity

Operator
Country
EUTE
Launch date
2013-05-14
Launch site
TYMSC
Launch vehicle
Mass (kg)
RCS (m²)
64.93

Purposes: comms

External: N2YO · Heavens-Above · Gunter

§ Orbital elements

Epoch: 2026-09-20T03:18:42.667776Z

Period
1,436.06 min
Inclination
0.0661°
Eccentricity
0.0004711
Mean motion
1.00274117 rev/d
Perigee alt
35,766.1 km
Apogee alt
35,805.8 km
Semi-major
42,164.1 km
B*
0.0000e+0
RAAN
354.2108°
Arg perigee
111.2322°
Mean anomaly
319.2970°
Rev number
4,889

§ Raw data

EUTELSAT 7B1 39163U 13022A   26263.13799384  .00000100  00000+0  00000+0 0  99922 39163   0.0661 354.2108 0004711 111.2322 319.2970  1.00274117 48898

JSON: /api/v1/satellites/39163 · /tle

For live sub-satellite position, see the globe view (requires WebGL).

§ Visibility from observer

Set your observer location to see the next 7 days of passes ≥ 10°. The values pass through the URL so the page stays shareable.

No JS? Fill the form by hand. The geolocation button needs JavaScript.